Flag for Ukraine Weather past 2 weeks in Kyiv, Ukraine

Now
63 °F

Broken clouds.


Feels Like: 63 °F
Forecast: 55 / 67 °F
Wind: 10 mph from Northeast

Location: Kyiv

Current Time: May 29, 2015 at 6:03:38 PM

Latest Report: May 29, 2015 at 5:30 PM


Visibility: N/A

Pressure: 29.77 "Hg

Humidity: 68%

Dew point: 52 °F

Location of KyivLocation

Historic Weather in Kyiv — Graph

°F

Kyiv temperature yesterday

Maximum temperature yesterday: 63 °F (at 12:00 AM)
Minimum temperature yesterday: 54 °F (at 11:30 PM)
Average temperature yesterday: 58 °F

Past Weeks' High & Low Weather Summary

 TemperatureHumidityPressure
High84 °F (May 24, 2:00 PM)100% (May 14, 9:30 PM)30.09 "Hg (May 14, 9:30 PM)
Low39 °F (May 19, 5:00 AM)29% (May 24, 5:00 PM)29.47 "Hg (May 15, 4:00 AM)
Average63 °F64%29.88 "Hg
* Reported May 14 5:00 PM — May 29 5:00 PM, Kyiv, Weather by CustomWeather, © 2015

Note: Actual official high and low records may vary slightly from our data, if they occured in-between our weather recording intervals... More about our weather records

Advertising

Kyiv weather history for previous 24 hours

 ConditionsComfort  
Time TempWeatherWind HumidityBarometerVisibility
5:00 PM
Fri, May 29
64 °FBroken clouds.6 mph64%29.77 "HgN/A
4:30 PM63 °FSunny.8 mph68%29.77 "Hg10 mi
4:00 PM61 °FOvercast.8 mph72%29.77 "HgN/A
3:30 PM61 °FLight rain. Overcast.8 mph72%29.77 "HgN/A
3:00 PM59 °FLight rain. Overcast.10 mph82%29.74 "HgN/A
2:30 PM59 °FLight rain. Overcast.10 mph77%29.74 "HgN/A
2:00 PM57 °FLight rain. Overcast.10 mph82%29.74 "HgN/A
1:30 PM57 °FLight rain. Overcast.13 mph82%29.74 "HgN/A
1:00 PM57 °FLight rain. Overcast.13 mph82%29.74 "HgN/A
12:30 PM57 °FLight rain. Overcast.13 mph82%29.74 "HgN/A
12:00 PM57 °FLight rain. Overcast.15 mph82%29.74 "HgN/A
11:30 AM57 °FLight rain. Overcast.13 mph77%29.74 "HgN/A
11:00 AM57 °FLight rain. Overcast.13 mph77%29.71 "HgN/A
10:30 AM55 °FLight rain. Overcast.13 mph88%29.71 "HgN/A
10:00 AM55 °FLight rain. Overcast.13 mph88%29.71 "HgN/A
9:30 AM55 °FLight rain. Overcast.15 mph88%29.71 "HgN/A
9:00 AM54 °FSprinkles. More clouds than sun.13 mph88%29.71 "HgN/A
8:30 AM54 °FSprinkles. More clouds than sun.13 mph88%29.71 "HgN/A
8:00 AM54 °FSprinkles. More clouds than sun.13 mph88%29.71 "HgN/A
7:30 AM54 °FSprinkles. Broken clouds.13 mph88%29.71 "HgN/A
7:00 AM54 °FLight rain. Overcast.13 mph88%29.71 "HgN/A
6:30 AM54 °FLight rain. Overcast.13 mph88%29.71 "HgN/A
6:00 AM54 °FLight rain. Overcast.13 mph88%29.71 "HgN/A
5:30 AM54 °FLight rain. Overcast.15 mph88%29.71 "HgN/A
5:00 AM54 °FLight rain. Overcast.13 mph88%29.71 "HgN/A
4:30 AM54 °FLight rain. Overcast.13 mph88%29.71 "HgN/A
4:00 AM54 °FOvercast.15 mph88%29.71 "HgN/A
3:30 AM54 °FOvercast.15 mph88%29.74 "HgN/A
3:00 AM54 °FOvercast.13 mph88%29.74 "HgN/A
2:30 AM54 °FOvercast.13 mph94%29.74 "HgN/A
1:00 AM54 °FLight rain. Low clouds.10 mph94%29.77 "HgN/A
12:30 AM54 °FLight rain. Low clouds.10 mph94%29.77 "HgN/A
12:00 AM54 °FLight rain. Fog.8 mph100%29.77 "Hg3 mi
11:30 PM
Thu, May 28
54 °FDrizzle. Low clouds.10 mph94%29.77 "Hg6 mi
11:00 PM55 °FMostly cloudy.13 mph88%29.77 "HgN/A
10:30 PM55 °FMostly cloudy.10 mph88%29.77 "HgN/A
10:00 PM55 °FMostly cloudy.10 mph88%29.77 "HgN/A
9:30 PM55 °FMore clouds than sun.13 mph88%29.77 "HgN/A
9:00 PM55 °FMore clouds than sun.10 mph88%29.77 "HgN/A
8:30 PM55 °FLight rain. More clouds than sun.8 mph88%29.77 "HgN/A
8:00 PM55 °FLight rain. More clouds than sun.13 mph88%29.77 "HgN/A
7:30 PM55 °FMore clouds than sun.15 mph88%29.77 "HgN/A
7:00 PM57 °FMore clouds than sun.13 mph82%29.77 "HgN/A
6:30 PM57 °FMore clouds than sun.15 mph82%29.77 "HgN/A
6:00 PM57 °FMore clouds than sun.13 mph82%29.77 "HgN/A
Weather by CustomWeather, © 2015

See weather overviewHow to use our weather pages